Siskiyou Pass Past Weather

Last 30 Days

 
High: 64ºf @2:54 PM    Low: 32ºf @12:54 AM     Approx. Precipitation / Rain Total: in.
Time (PDT)Temp. (ºf)Humidity (%)Dew Point (ºf)Barometer (inHG)Wind Speed (mph)Wind DirectionWind Gust (mph)1hr. Precip / Rain Total (in.)Snow Depth
6:54 PM584637.34-1.74wnw8.69--
5:54 PM633635.62-2.61nw9.56--
4:54 PM643435.07-3.48nw8.69--
3:54 PM643535.8-2.61nw11.3--
2:54 PM643435.07-2.61nw8.69--
1:54 PM624238.64-2.61wnw8.69--
12:54 PM604739.71-3.48wnw10.43--
11:54 AM575139.05-2.61nnw10.43--
10:54 AM555438.66-2.61nnw9.56--
8:54 AM466936.41-4.34nne9.56--
7:54 AM427835.65-1.74ene9.56--
6:54 AM378833.78-0.87nw7.82--
5:54 AM388533.9-1.74sw7.82--
4:54 AM378733.5-0.87nnw7.82--
3:54 AM378633.21-1.74nne8.69--
2:54 AM388533.9-0.87ne7.82--
1:54 AM359232.92-0.87wnw4.34--
12:54 AM329530.73-0.87ne3.48--
High: 49ºf @4:54 PM    Low: 32ºf @5:54 AM     Approx. Precipitation / Rain Total: in.
Time (PDT)Temp. (ºf)Humidity (%)Dew Point (ºf)Barometer (inHG)Wind Speed (mph)Wind DirectionWind Gust (mph)1hr. Precip / Rain Total (in.)Snow Depth
11:54 PM329530.73-0.87nne4.34--
10:54 PM329530.73---4.34--
9:54 PM349432.46-0.87ne3.48--
8:54 PM379234.9---2.61--
7:54 PM428136.6-0.87n5.21--
6:54 PM476134.26-1.74nnw6.95--
4:54 PM496035.73-2.61n7.82--
3:54 PM496035.73-2.61n7.82--
2:54 PM476636.24-2.61nne6.95--
1:54 PM456935.45-0.87n5.21--
12:54 PM467137.13-0.87nw5.21--
11:54 AM408836.74-0.87n3.48--
10:54 AM398635.17---2.61--
9:54 AM379435.44-0.87w3.48--
8:54 AM359834.49---1.74--
7:54 AM339932.75------
6:54 AM329931.75------
5:54 AM329931.75------
4:54 AM329831.5---2.61--
3:54 AM339832.5---4.34--
1:54 AM339832.5-0.87se3.48--
High: 42ºf @1:54 PM    Low: 32ºf @9:54 PM     Approx. Precipitation / Rain Total: in.
Time (PDT)Temp. (ºf)Humidity (%)Dew Point (ºf)Barometer (inHG)Wind Speed (mph)Wind DirectionWind Gust (mph)1hr. Precip / Rain Total (in.)Snow Depth
10:54 PM339832.5-2.61se8.69--
9:54 PM329831.5---2.61--
8:54 PM339732.24---5.21--
7:54 PM339832.5---6.08--
5:54 PM339631.99---2.61--
4:54 PM349632.98-0.87ene4.34--
3:54 PM339732.24-0.87ne5.21--
2:54 PM349332.19-1.74wsw11.3--
1:54 PM428437.52-3.48sse12.17--
12:54 PM409237.87-2.61sse7.82--
11:54 AM369634.97-0.87sw6.08--
10:54 AM389135.61-2.61s8.69--
9:54 AM379435.44-0.87ssw10.43--
8:54 AM378934.06-3.48se14.77--
7:54 AM369133.63-2.61se13.03--
6:54 AM369334.18-4.34se12.17--
5:54 AM359533.72-2.61se9.56--
4:54 AM379234.9-4.34se12.17--
3:54 AM369334.18-8.69e15.64--
2:54 AM369334.18-6.95ese13.9--
1:54 AM379034.34-7.82ese16.51--
12:54 AM379435.44-6.95ese16.51--
High: 41ºf @5:54 AM    Low: 29ºf @1:54 AM     Approx. Precipitation / Rain Total: in.
Time (PDT)Temp. (ºf)Humidity (%)Dew Point (ºf)Barometer (inHG)Wind Speed (mph)Wind DirectionWind Gust (mph)1hr. Precip / Rain Total (in.)Snow Depth
11:54 PM379134.62-6.95se14.77--
10:54 PM389135.61-6.95se13.9--
9:54 PM379134.62-7.82ese14.77--
8:54 PM379134.62-6.08ese13.03--
7:54 PM369233.91-1.74sse13.9--
6:54 PM379034.34-5.21se14.77--
5:54 PM379034.34-7.82ese15.64--
4:54 PM378833.78-6.95ese13.03--
3:54 PM349532.72-4.34ese6.95--
2:54 PM339431.47-4.34se17.38--
1:54 PM359433.45-6.95ese12.17--
12:54 PM359232.92-6.08ese12.17--
10:54 AM349532.72-3.48se8.69--
9:54 AM359333.18-2.61sse9.56--
8:54 AM349332.19-3.48se10.43--
7:54 AM385623.72-3.48se10.43--
6:54 AM404922.4-3.48sse9.56--
5:54 AM414923.32-4.34ese10.43--
4:54 AM327424.67---1.74--
3:54 AM317423.7---1.74--
2:54 AM307422.74---2.61--
1:54 AM297421.77-0.87ne4.34--
High: 54ºf @2:54 PM    Low: 29ºf @5:54 AM     Approx. Precipitation / Rain Total: in.
Time (PDT)Temp. (ºf)Humidity (%)Dew Point (ºf)Barometer (inHG)Wind Speed (mph)Wind DirectionWind Gust (mph)1hr. Precip / Rain Total (in.)Snow Depth
11:54 PM316922.04-0.87nne3.48--
9:54 PM355721.33-2.61nne4.34--
8:54 PM395524.22-1.74ne4.34--
7:54 PM444021.25---4.34--
6:54 PM493220.44-1.74w8.69--
5:54 PM522618.19-3.48nnw9.56--
4:54 PM532719.93-2.61wnw9.56--
3:54 PM532619.05-3.48nw11.3--
2:54 PM542418.04-3.48nnw10.43--
1:54 PM522416.34-3.48nw11.3--
12:54 PM512415.5-2.61nw10.43--
11:54 AM472815.61-3.48nne10.43--
10:54 AM443920.65-3.48n10.43--
9:54 AM405525.15-4.34nne11.3--
8:54 AM386326.54-2.61nw7.82--
7:54 AM337525.96-0.87ne4.34--
6:54 AM298525.07-1.74ne6.95--
5:54 AM298123.91-2.61ene6.08--
4:54 AM307723.68-2.61ene9.56--
3:54 AM317423.7-2.61nw8.69--
2:54 AM326822.65-1.74nnw7.82--
1:54 AM336321.8-0.87nnw6.95--
12:54 AM345820.8-1.74n9.56--
High: 51ºf @4:54 PM    Low: 28ºf @5:54 AM     Approx. Precipitation / Rain Total: in.
Time (PDT)Temp. (ºf)Humidity (%)Dew Point (ºf)Barometer (inHG)Wind Speed (mph)Wind DirectionWind Gust (mph)1hr. Precip / Rain Total (in.)Snow Depth
11:54 PM355219.17-2.61n9.56--
10:54 PM365019.19-2.61nnw9.56--
9:54 PM384820.07-2.61nnw9.56--
8:54 PM394820.99-3.48nw10.43--
7:54 PM424019.45-3.48nw8.69--
6:54 PM472412.1-2.61nnw10.43--
5:54 PM502010.53-2.61n9.56--
4:54 PM511910.22-4.34nw12.17--
3:54 PM50199.39-5.21n16.51--
2:54 PM51120.21-4.34nne12.17--
1:54 PM5012-0.57-4.34n12.17--
12:54 PM49209.7-4.34nnw10.43--
11:54 AM463721.2-2.61w6.95--
10:54 AM424120.03-1.74wnw6.08--
9:54 AM404721.42-0.87nw6.95--
8:54 AM366425.02-3.48n6.95--
7:54 AM337525.96-0.87nnw5.21--
6:54 AM288524.09-1.74nne6.95--
5:54 AM288423.8-2.61nne6.95--
4:54 AM288122.94-1.74nne8.69--
3:54 AM297622.4-1.74n5.21--
2:54 AM307322.41-1.74nnw7.82--
1:54 AM307523.05-1.74nw6.08--
12:54 AM327224.01-1.74wnw9.56--
High: 46ºf @3:54 PM    Low: 29ºf @6:54 AM     Approx. Precipitation / Rain Total: in.
Time (PDT)Temp. (ºf)Humidity (%)Dew Point (ºf)Barometer (inHG)Wind Speed (mph)Wind DirectionWind Gust (mph)1hr. Precip / Rain Total (in.)Snow Depth
11:54 PM327023.34-1.74wnw9.56--
9:54 PM365621.84-3.48nnw11.3--
8:54 PM375020.11-3.48nw10.43--
7:54 PM384619.08-4.34nw12.17--
6:54 PM413616.12-2.61nw11.3--
5:54 PM443115.33-4.34n11.3--
4:54 PM453015.45-5.21nne13.9--
3:54 PM463117.08-5.21nnw15.64--
2:54 PM452914.68-5.21n15.64--
1:54 PM462915.55-5.21nnw16.51--
12:54 PM443316.77-4.34nw14.77--
11:54 AM414018.55-5.21nw16.51--
10:54 AM404419.87-5.21nw16.51--
9:54 AM375522.35-4.34nw17.38--
8:54 AM345720.39-4.34nw12.17--
7:54 AM326822.65-4.34nw13.03--
6:54 AM297923.32-2.61nw10.43--
5:54 AM307924.29-3.48nw9.56--
4:54 AM326722.3-2.61nnw9.56--
3:54 AM317423.7-1.74wnw6.95--
2:54 AM317824.96-2.61nw8.69--
1:54 AM327625.31-2.61nw8.69--
12:54 AM337124.64-3.48nw13.9--
High: 55ºf @2:54 PM    Low: 36ºf @10:54 PM     Approx. Precipitation / Rain Total: in.
Time (PDT)Temp. (ºf)Humidity (%)Dew Point (ºf)Barometer (inHG)Wind Speed (mph)Wind DirectionWind Gust (mph)1hr. Precip / Rain Total (in.)Snow Depth
11:54 PM366425.02-4.34nnw13.03--
10:54 PM366625.76-2.61nw10.43--
9:54 PM386226.15-2.61nw8.69--
8:54 PM406629.57-1.74wnw6.95--
7:54 PM445629.32-0.87wnw5.21--
6:54 PM484728.74-0.87wnw6.95--
5:54 PM514027.54-1.74wsw8.69--
4:54 PM534029.33-2.61wsw8.69--
3:54 PM544130.84-1.74sw6.95--
2:54 PM555036.7-2.61ssw8.69--
1:54 PM555338.19-1.74ssw7.82--
12:54 PM545940-1.74sw8.69--
11:54 AM508044.08-5.21ese9.56--
10:54 AM478643.03-4.34se10.43--
9:54 AM449041.26-4.34se12.17--
8:54 AM439341.12-3.48se12.17--
7:54 AM429440.4-2.61sse10.43--
6:54 AM419539.68-6.08se12.17--
5:54 AM419539.68-6.95se13.9--
4:54 AM419639.95-5.21se13.9--
3:54 AM419539.68-5.21ese10.43--
2:54 AM429640.94-4.34se9.56--
1:54 AM429540.67-4.34ese7.82--
12:54 AM429540.67-5.21se11.3--
High: 45ºf @2:54 PM    Low: 39ºf @6:54 AM     Approx. Precipitation / Rain Total: in.
Time (PDT)Temp. (ºf)Humidity (%)Dew Point (ºf)Barometer (inHG)Wind Speed (mph)Wind DirectionWind Gust (mph)1hr. Precip / Rain Total (in.)Snow Depth
11:54 PM429540.67-6.08se11.3--
10:54 PM439541.67-5.21se12.17--
9:54 PM439341.12-6.08se13.03--
7:54 PM429239.85-6.95ese16.51--
6:54 PM429139.57-7.82se15.64--
4:54 PM429139.57-6.95ese16.51--
3:54 PM438538.8-7.82se19.12--
2:54 PM458039.21-9.56se17.38--
1:54 PM448038.23-9.56ese18.25--
12:54 PM438237.89-7.82se18.25--
11:54 AM457738.23-6.95se15.64--
10:54 AM438037.26-6.08se14.77--
9:54 AM438639.1-5.21se12.17--
8:54 AM408937.02-5.21se13.03--
7:54 AM399036.32-4.34se10.43--
6:54 AM398936.04-4.34se7.82--
5:54 AM408636.16-4.34ese8.69--
4:54 AM408636.16-6.08ese12.17--
3:54 AM418737.43-4.34ese8.69--
2:54 AM427634.99-4.34ese8.69--
1:54 AM427634.99-5.21ese11.3--
12:54 AM418536.84-5.21ese12.17--
High: 47ºf @2:54 PM    Low: 35ºf @3:54 AM     Approx. Precipitation / Rain Total: in.
Time (PDT)Temp. (ºf)Humidity (%)Dew Point (ºf)Barometer (inHG)Wind Speed (mph)Wind DirectionWind Gust (mph)1hr. Precip / Rain Total (in.)Snow Depth
11:54 PM418938.01-6.08ese12.17--
10:54 PM418938.01-6.95ese13.9--
9:54 PM419439.41-6.08se13.03--
8:54 PM418938.01-7.82se15.64--
7:54 PM428838.71-7.82se14.77--
6:54 PM428437.52-6.95se13.9--
5:54 PM447837.59-6.95se13.9--
4:54 PM457336.87-6.08se14.77--
3:54 PM476736.62-5.21sse17.38--
2:54 PM476636.24-6.08se14.77--
1:54 PM476937.36-4.34sse14.77--
12:54 PM467237.49-6.95se13.03--
11:54 AM447937.91-6.95se13.03--
10:54 AM428136.6-6.08se12.17--
9:54 AM408836.74-2.61se7.82--
8:54 AM389135.61-1.74se7.82--
7:54 AM379134.62-1.74se6.95--
6:54 AM379234.9-1.74sse6.08--
5:54 AM369835.49---4.34--
4:54 AM359734.24-0.87ssw2.61--
3:54 AM359633.98---5.21--
2:54 AM359633.98-1.74sse6.95--
1:54 AM369434.44-1.74s5.21--
12:54 AM369534.71-1.74sse6.95--
High: 43ºf @4:54 PM    Low: 36ºf @7:54 AM     Approx. Precipitation / Rain Total: in.
Time (PDT)Temp. (ºf)Humidity (%)Dew Point (ºf)Barometer (inHG)Wind Speed (mph)Wind DirectionWind Gust (mph)1hr. Precip / Rain Total (in.)Snow Depth
11:54 PM379335.17-3.48se8.69--
10:54 PM389135.61-3.48ese10.43--
9:54 PM389135.61-4.34ese9.56--
8:54 PM379335.17-5.21ese11.3--
7:54 PM388935.05-6.08se12.17--
6:54 PM408335.26-6.95se12.17--
5:54 PM427634.99-4.34se11.3--
4:54 PM437234.6-5.21se12.17--
3:54 PM437033.9-5.21se11.3--
2:54 PM428036.29-6.08se12.17--
1:54 PM437435.29-4.34sse14.77--
12:54 PM427534.66-6.08se12.17--
11:54 AM408134.65-4.34se12.17--
10:54 AM408134.65-6.08se11.3--
9:54 AM398635.17-3.48se8.69--
8:54 AM379435.44-1.74ssw5.21--
7:54 AM369434.44-0.87s6.95--
6:54 AM378432.62-2.61se8.69--
5:54 AM378031.41-5.21se11.3--
3:54 AM387430.46-5.21ese10.43--
2:54 AM397030.06-6.08ese10.43--
1:54 AM397130.41-4.34ese8.69--
12:54 AM388032.39-5.21ese9.56--
High: 50ºf @3:54 PM    Low: 28ºf @3:54 AM     Approx. Precipitation / Rain Total: in.
Time (PDT)Temp. (ºf)Humidity (%)Dew Point (ºf)Barometer (inHG)Wind Speed (mph)Wind DirectionWind Gust (mph)1hr. Precip / Rain Total (in.)Snow Depth
11:54 PM397933.05-4.34ese11.3--
10:54 PM416429.77-4.34se10.43--
8:54 PM426129.54-3.48se10.43--
7:54 PM435728.82-4.34se8.69--
6:54 PM455429.37-3.48se6.95--
5:54 PM474928.84-0.87sw5.21--
4:54 PM494327.49-0.87ssw6.95--
3:54 PM504127.24-0.87sw6.08--
2:54 PM503926.03-1.74sse7.82--
1:54 PM503724.76-1.74sse6.95--
12:54 PM473822.73-2.61sse6.95--
11:54 AM473822.73-0.87s5.21--
10:54 AM435126.12-2.61wnw6.95--
9:54 AM425024.72-0.87sw3.48--
8:54 AM347025.26---1.74--
7:54 AM307723.68---3.48--
6:54 AM288022.64---2.61--
3:54 AM288022.64-0.87ne2.61--
2:54 AM287822.04-1.74ene3.48--
1:54 AM287721.74---1.74--
12:54 AM297321.45-0.87ene4.34--
High: 49ºf @1:54 PM    Low: 29ºf @6:54 AM     Approx. Precipitation / Rain Total: in.
Time (PDT)Temp. (ºf)Humidity (%)Dew Point (ºf)Barometer (inHG)Wind Speed (mph)Wind DirectionWind Gust (mph)1hr. Precip / Rain Total (in.)Snow Depth
11:54 PM346222.37-0.87n5.21--
10:54 PM346222.37-0.87nw5.21--
9:54 PM355319.62-0.87ne6.08--
7:54 PM393413.04-1.74nw6.08--
6:54 PM45239.46-2.61nnw7.82--
5:54 PM47174.48-2.61nw9.56--
4:54 PM4813-0.46-4.34wnw11.3--
3:54 PM4812-2.15-4.34nnw12.17--
2:54 PM49176.12-4.34wnw12.17--
1:54 PM492918.15-3.48wnw9.56--
12:54 PM473520.78-1.74nw7.82--
11:54 AM444423.5-1.74wnw8.69--
10:54 AM405324.27-2.61wnw8.69--
9:54 AM366425.02-2.61wnw6.95--
8:54 AM347025.26-1.74nnw6.95--
7:54 AM308225.18-0.87nw4.34--
6:54 AM298525.07-0.87wsw6.95--
5:54 AM298424.78-3.48n8.69--
4:54 AM298424.78-0.87n6.08--
2:54 AM318125.87-3.48nne10.43--
1:54 AM317824.96-3.48nw13.03--
High: 41ºf @10:54 AM    Low: 23ºf @6:54 AM     Approx. Precipitation / Rain Total: in.
Time (PDT)Temp. (ºf)Humidity (%)Dew Point (ºf)Barometer (inHG)Wind Speed (mph)Wind DirectionWind Gust (mph)1hr. Precip / Rain Total (in.)Snow Depth
11:54 PM318326.45-0.87n7.82--
10:54 PM318527.03-1.74n5.21--
9:54 PM319128.69-1.74wnw8.69--
7:54 PM319128.69-2.61nw8.69--
6:54 PM329029.41-3.48nw11.3--
5:54 PM376124.82-3.48nnw13.9--
4:54 PM405324.27-1.74ssw6.95--
3:54 PM405223.81-0.87sw4.34--
2:54 PM395222.88-0.87nnw8.69--
1:54 PM385623.72-1.74wsw6.08--
12:54 PM386326.54-1.74sw6.08--
11:54 AM415023.8-1.74sse8.69--
10:54 AM415325.2-1.74se6.08--
9:54 AM377228.83-0.87ssw5.21--
8:54 AM337927.21-1.74e4.34--
7:54 AM259022.49-0.87ene2.61--
6:54 AM239221.03-0.87ne3.48--
5:54 AM249322.28-0.87e2.61--
4:54 AM259323.27-0.87e3.48--
3:54 AM259323.27-1.74ne3.48--
1:54 AM279425.51-0.87ne3.48--
12:54 AM299628.01-0.87n2.61--
High: 41ºf @2:54 PM    Low: 31ºf @11:54 PM     Approx. Precipitation / Rain Total: in.
Time (PDT)Temp. (ºf)Humidity (%)Dew Point (ºf)Barometer (inHG)Wind Speed (mph)Wind DirectionWind Gust (mph)1hr. Precip / Rain Total (in.)Snow Depth
11:54 PM319730.25---2.61--
10:54 PM319730.25---1.74--
9:54 PM329731.25-0.87ene2.61--
8:54 PM319630-0.87nne2.61--
7:54 PM339431.47---3.48--
6:54 PM359032.37-0.87wsw7.82--
4:54 PM417132.33-5.21se11.3--
2:54 PM417533.69-6.08ese13.9--
1:54 PM407733.38-9.56ese15.64--
12:54 PM408335.26-7.82se15.64--
11:54 AM388433.6-6.95se15.64--
10:54 AM378833.78-7.82se15.64--
9:54 AM359132.64-6.95se15.64--
8:54 AM339230.93-6.08ese13.03--
7:54 AM339331.2-5.21se13.9--
6:54 AM339531.73-5.21se11.3--
5:54 AM339531.73-4.34sse12.17--
4:54 AM339331.2-6.95se14.77--
3:54 AM349332.19-6.08ese13.03--
1:54 AM386627.67-6.95se16.51--
12:54 AM396227.1-7.82se15.64--
High: 52ºf @4:54 PM    Low: 33ºf @5:54 AM     Approx. Precipitation / Rain Total: in.
Time (PDT)Temp. (ºf)Humidity (%)Dew Point (ºf)Barometer (inHG)Wind Speed (mph)Wind DirectionWind Gust (mph)1hr. Precip / Rain Total (in.)Snow Depth
11:54 PM405926.84-1.74s11.3--
8:54 PM434623.65-0.87sse5.21--
7:54 PM444524.04-0.87w6.95--
6:54 PM493421.87-0.87sw12.17--
5:54 PM505132.59-5.21se14.77--
4:54 PM525234.93-5.21se15.64--
3:54 PM515234-6.95se18.25--
2:54 PM505735.37-6.95se15.64--
1:54 PM505735.37-8.69se20.86--
12:54 PM515434.95-6.95se17.38--
11:54 AM505534.48-7.82se17.38--
10:54 AM486135.2-8.69se18.25--
9:54 AM476836.99-9.56se16.51--
8:54 AM457437.22-6.08se12.17--
7:54 AM437936.94-6.08ese11.3--
5:54 AM339130.67-0.87ne4.34--
4:54 AM349131.65-0.87n2.61--
3:54 AM349131.65---2.61--
2:54 AM349131.65---1.74--
1:54 AM368632.23---2.61--
12:54 AM378432.62---1.74--
High: 65ºf @2:54 PM    Low: 29ºf @5:54 AM     Approx. Precipitation / Rain Total: in.
Time (PDT)Temp. (ºf)Humidity (%)Dew Point (ºf)Barometer (inHG)Wind Speed (mph)Wind DirectionWind Gust (mph)1hr. Precip / Rain Total (in.)Snow Depth
11:54 PM436833.17---5.21--
10:54 PM456533.95-0.87wnw5.21--
9:54 PM485532.61-0.87e6.08--
8:54 PM485130.74-0.87ne4.34--
7:54 PM524229.63-0.87ene5.21--
6:54 PM563226.57-0.87sw5.21--
5:54 PM583127.54-0.87wsw5.21--
4:54 PM612726.78-2.61sw6.95--
3:54 PM632526.63-2.61wsw9.56--
2:54 PM652326.3-1.74s8.69--
1:54 PM632324.62-2.61sw6.95--
12:54 PM622929.38-2.61sse7.82--
11:54 AM594235.94-1.74s4.34--
10:54 AM535135.36-0.87ese3.48--
9:54 AM476335.07---1.74--
8:54 AM407633.06---2.61--
7:54 AM309428.49---3.48--
6:54 AM299427.49-0.87ne3.48--
5:54 AM299427.49-0.87ne3.48--
4:54 AM299427.49-2.61nne3.48--
3:54 AM309528.74-1.74nne2.61--
2:54 AM309528.74-0.87nne2.61--
1:54 AM319429.48---1.74--
12:54 AM319329.22---2.61--
High: 61ºf @2:54 PM    Low: 30ºf @3:54 AM     Approx. Precipitation / Rain Total: in.
Time (PDT)Temp. (ºf)Humidity (%)Dew Point (ºf)Barometer (inHG)Wind Speed (mph)Wind DirectionWind Gust (mph)1hr. Precip / Rain Total (in.)Snow Depth
11:54 PM328929.13---2.61--
10:54 PM348529.97-0.87nne4.34--
9:54 PM368231.05---3.48--
8:54 PM407131.37-1.74ene5.21--
7:54 PM455931.54-2.61ene6.95--
6:54 PM514731.49-3.48ese9.56--
5:54 PM525435.88-1.74sse9.56--
4:54 PM563830.76-6.95ne13.03--
3:54 PM602524.08-1.74ssw7.82--
2:54 PM612524.93-3.48e14.77--
1:54 PM544130.84-6.95ene15.64--
12:54 PM534230.53-2.61ne7.82--
11:54 AM524631.87-3.48nne7.82--
10:54 AM544432.58-3.48n10.43--
9:54 AM505233.07-2.61n10.43--
8:54 AM436532.05-0.87s4.34--
7:54 AM328728.58-1.74ne4.34--
6:54 AM309127.7-1.74ne3.48--
5:54 AM318827.87-1.74ne4.34--
4:54 AM308726.61-1.74ne4.34--
3:54 AM308927.16-1.74nne4.34--
2:54 AM328528.01-0.87ene3.48--
1:54 AM328327.43-0.87n5.21--
12:54 AM318426.74-0.87ne3.48--
High: 58ºf @3:54 PM    Low: 24ºf @6:54 AM     Approx. Precipitation / Rain Total: in.
Time (PDT)Temp. (ºf)Humidity (%)Dew Point (ºf)Barometer (inHG)Wind Speed (mph)Wind DirectionWind Gust (mph)1hr. Precip / Rain Total (in.)Snow Depth
11:54 PM328026.54-0.87ne2.61--
10:54 PM337927.21-0.87ne3.48--
9:54 PM357226.9---4.34--
8:54 PM396628.62-1.74nne4.34--
7:54 PM445428.44-2.61ne3.48--
6:54 PM523625.88-0.87sw6.08--
5:54 PM552923.34-1.74sw9.56--
4:54 PM572622.46-3.48s11.3--
3:54 PM582925.93-4.34se10.43--
2:54 PM583127.54-2.61ssw7.82--
1:54 PM533928.71-0.87wnw6.08--
12:54 PM534230.53-1.74nw6.08--
11:54 AM514228.72-1.74wsw5.21--
10:54 AM495031.18-0.87ssw3.48--
9:54 AM445729.76---1.74--
8:54 AM357929.16---2.61--
7:54 AM269424.52-0.87ne2.61--
6:54 AM249422.53---3.48--
5:54 AM259323.27-0.87ne3.48--
4:54 AM259523.77---1.74--
3:54 AM269625.02---1.74--
2:54 AM279626.01-0.87ne2.61--
1:54 AM279425.51---2.61--
12:54 AM289426.5---2.61--
High: 53ºf @2:54 PM    Low: 22ºf @6:54 AM     Approx. Precipitation / Rain Total: in.
Time (PDT)Temp. (ºf)Humidity (%)Dew Point (ºf)Barometer (inHG)Wind Speed (mph)Wind DirectionWind Gust (mph)1hr. Precip / Rain Total (in.)Snow Depth
11:54 PM299427.49---3.48--
10:54 PM319028.42-2.61ne4.34--
9:54 PM328728.58-1.74ne4.34--
8:54 PM358029.47-0.87ene3.48--
7:54 PM416329.38-0.87e6.08--
6:54 PM474325.68-1.74s5.21--
5:54 PM493925.13-0.87s7.82--
4:54 PM513625-2.61sw7.82--
3:54 PM513725.65-2.61s7.82--
2:54 PM533727.43-2.61s9.56--
1:54 PM524028.44-3.48sse9.56--
12:54 PM514027.54-3.48sse7.82--
11:54 AM514128.14-1.74s4.34--
10:54 AM474727.83---2.61--
9:54 AM436030.08---2.61--
8:54 AM329029.41---2.61--
7:54 AM239321.28-0.87nne3.48--
6:54 AM229420.54-0.87nne3.48--
5:54 AM239421.54-0.87ne3.48--
3:54 AM259523.77-1.74ne3.48--
2:54 AM269625.02---2.61--
1:54 AM279826.51-1.74ene3.48--
High: 47ºf @2:54 PM    Low: 30ºf @3:54 AM     Approx. Precipitation / Rain Total: in.
Time (PDT)Temp. (ºf)Humidity (%)Dew Point (ºf)Barometer (inHG)Wind Speed (mph)Wind DirectionWind Gust (mph)1hr. Precip / Rain Total (in.)Snow Depth
11:54 PM309829.5---2.61--
10:54 PM319730.25-1.74ene3.48--
9:54 PM329731.25---2.61--
8:54 PM329731.25---1.74--
7:54 PM349432.46-0.87ene2.61--
6:54 PM378532.92-0.87wsw6.95--
5:54 PM398233.98-1.74se7.82--
4:54 PM437535.63-1.74ssw7.82--
3:54 PM456634.33-0.87ssw5.21--
2:54 PM476335.07-1.74sw5.21--
1:54 PM457035.81-0.87sw6.08--
12:54 PM417634.02-1.74sse5.21--
11:54 AM408034.34-0.87ssw4.34--
10:54 AM378733.5---1.74--
9:54 AM329330.21------
8:54 AM319830.5------
7:54 AM309829.5------
6:54 AM309829.5------
5:54 AM309829.5------
4:54 AM309729.25------
3:54 AM309729.25---3.48--
2:54 AM309729.25-0.87sse6.08--
1:54 AM309629-1.74se6.95--
12:54 AM309528.74-0.87sse6.08--
High: 34ºf @12:54 AM    Low: 30ºf @11:54 PM     Approx. Precipitation / Rain Total: in.
Time (PDT)Temp. (ºf)Humidity (%)Dew Point (ºf)Barometer (inHG)Wind Speed (mph)Wind DirectionWind Gust (mph)1hr. Precip / Rain Total (in.)Snow Depth
11:54 PM309528.74-1.74se9.56--
10:54 PM309428.49-2.61se6.95--
9:54 PM309528.74-2.61se9.56--
8:54 PM309428.49-5.21ese10.43--
6:54 PM309428.49-6.08se13.03--
5:54 PM319529.74-4.34se12.17--
4:54 PM319429.48-2.61se10.43--
3:54 PM319429.48-4.34se12.17--
2:54 PM329229.94-4.34se12.17--
1:54 PM329229.94-5.21se13.9--
12:54 PM339030.39-5.21se11.3--
11:54 AM328929.13-6.08se13.03--
10:54 AM329029.41-5.21se11.3--
9:54 AM328929.13-4.34se12.17--
8:54 AM319228.95-3.48se10.43--
7:54 AM319329.22-4.34se9.56--
5:54 AM329229.94-4.34se11.3--
4:54 AM329430.47-1.74sse9.56--
3:54 AM329430.47-1.74s8.69--
2:54 AM329831.5-4.34se12.17--
1:54 AM349933.75-3.48se8.69--
12:54 AM349833.5-0.87se5.21--
High: 46ºf @1:54 PM    Low: 22ºf @2:54 AM     Approx. Precipitation / Rain Total: in.
Time (PDT)Temp. (ºf)Humidity (%)Dew Point (ºf)Barometer (inHG)Wind Speed (mph)Wind DirectionWind Gust (mph)1hr. Precip / Rain Total (in.)Snow Depth
11:54 PM339732.24---2.61--
10:54 PM349532.72---2.61--
9:54 PM349532.72-0.87nnw3.48--
8:54 PM349532.72---2.61--
7:54 PM378934.06-0.87se4.34--
6:54 PM387932.08-1.74wnw6.95--
5:54 PM398233.98-0.87n4.34--
4:54 PM407332.06-0.87n3.48--
3:54 PM407131.37---4.34--
2:54 PM427233.64-0.87wnw4.34--
1:54 PM466233.72-0.87wnw5.21--
12:54 PM446231.83-0.87sw4.34--
11:54 AM396227.1-0.87w5.21--
10:54 AM356825.52-1.74nnw6.95--
9:54 AM328026.54-1.74nnw5.21--
8:54 AM278924.2-0.87ne3.48--
7:54 AM249222.02---3.48--
6:54 AM239221.03---2.61--
5:54 AM239020.51-0.87ne2.61--
4:54 AM249021.5-0.87n7.82--
3:54 AM249121.76-1.74nnw6.08--
2:54 AM229220.04-0.87nne4.34--
1:54 AM229220.04-1.74nne4.34--
12:54 AM229220.04-0.87ne3.48--
High: 37ºf @3:54 PM    Low: 24ºf @11:54 PM     Approx. Precipitation / Rain Total: in.
Time (PDT)Temp. (ºf)Humidity (%)Dew Point (ºf)Barometer (inHG)Wind Speed (mph)Wind DirectionWind Gust (mph)1hr. Precip / Rain Total (in.)Snow Depth
11:54 PM249322.28---4.34--
8:54 PM259423.52-0.87se4.34--
7:54 PM279024.47-0.87ssw6.95--
6:54 PM289326.24-2.61e7.82--
5:54 PM299427.49-1.74sw10.43--
4:54 PM357226.9-1.74ssw8.69--
3:54 PM376325.59-2.61sse11.3--
2:54 PM366926.83-3.48se11.3--
1:54 PM366826.48-5.21ese13.9--
12:54 PM337826.9-5.21se8.69--
11:54 AM338829.84-1.74se6.08--
10:54 AM338729.56-3.48ese5.21--
9:54 AM319529.74-0.87wsw5.21--
8:54 AM319429.48-1.74s11.3--
7:54 AM308626.33-4.34sse14.77--
6:54 AM318226.16-4.34sse12.17--
5:54 AM309428.49-0.87sw6.08--
4:54 AM309227.96-0.87s6.95--
3:54 AM308927.16-1.74sse8.69--
2:54 AM318326.45-4.34se9.56--
1:54 AM309127.7-4.34se11.3--
12:54 AM317925.27-5.21ese9.56--
High: 35ºf @6:54 PM    Low: 31ºf @11:54 PM     Approx. Precipitation / Rain Total: in.
Time (PDT)Temp. (ºf)Humidity (%)Dew Point (ºf)Barometer (inHG)Wind Speed (mph)Wind DirectionWind Gust (mph)1hr. Precip / Rain Total (in.)Snow Depth
11:54 PM318226.16-5.21ese10.43--
10:54 PM318627.31-2.61se12.17--
9:54 PM318527.03-4.34ese9.56--
8:54 PM328728.58-1.74sse11.3--
7:54 PM346724.21-4.34ese9.56--
6:54 PM356825.52-4.34se11.3--
Past Weather Disclaimer Note regarding "Approx. Precipitation / Rain Total"

Currently

A Few Clouds 59°F
30.02in
Barometer
41%
Humidity
North 0.0mph
Wind
A Few Clouds

Past Weather Nearby

More Local Information

Bookmark and Share

Go Ad Free - Become a Member